Go to the U of M home page
School of Physics & Astronomy
Physics & Astronomy Wiki

physlab:labdoc1301:home

1301 docs

1301lab1_1d_motion_check_understanding.doc32.0 KiB2013/08/27 09:47
1301lab1_1d_motion_intro.doc28.0 KiB2013/08/27 09:47
1301lab1_p1_1d_motion_constant_velocity.doc48.0 KiB2013/08/27 09:47
1301lab1_p1_measurement_uncertainty_edited.docx212.3 KiB2013/08/27 09:47
1301lab1_p2_1d_motion_down_incline.doc42.5 KiB2013/08/27 09:47
1301lab1_p3_1d_motion_up_down_incline.doc36.5 KiB2013/08/27 09:47
1301lab1_p4_1d_motion_down_incline_nonzero_initial.doc42.5 KiB2013/08/27 09:47
1301lab1_p5_1d_motion_mass_down_incline.doc41.0 KiB2013/08/27 09:47
1301lab1_p6_1d_motion_elastic_level_surface.doc33.5 KiB2013/08/27 09:47
1301lab2_2d_motion_check_understanding.doc32.5 KiB2013/08/27 09:47
1301lab2_2d_motion_intro.doc25.0 KiB2013/08/27 09:47
1301lab2_p1_2d_motion_mass_accel.doc36.0 KiB2013/08/27 09:47
1301lab2_p2_2d_motion_accel_initial_velocity.doc36.0 KiB2013/08/27 09:47
1301lab2_p3_2d_motion_projectile_velocity.doc37.5 KiB2013/08/27 09:47
1301lab2_p4_2d_motion_bouncing.doc37.0 KiB2013/08/27 09:47
1301lab2_p5_2d_motion_accel_circular.doc39.0 KiB2013/08/27 09:47
1301lab2_p6_2d_motion_vector_approach_circular.doc38.0 KiB2013/08/27 09:47
1301lab2_p7_2d_motion_accel_orbits.doc38.5 KiB2013/08/27 09:47
1301lab3_forces_check_understanding.doc34.0 KiB2013/08/27 09:47
1301lab3_forces_intro.doc24.5 KiB2013/08/27 09:47
1301lab3_forces_table_coefficients_friction.doc34.5 KiB2013/08/27 09:47
1301lab3_p1_forces_motion.doc41.5 KiB2013/08/27 09:47
1301lab3_p2_forces_equilibrium.doc37.5 KiB2013/08/27 09:47
1301lab3_p3_forces_friction.doc38.5 KiB2013/08/27 09:47
1301lab3_p4_forces_normal_kinetic_friction.doc37.0 KiB2013/08/27 09:47
1301lab3_p5_forces_normal_kinetic_friction2.doc37.0 KiB2013/08/27 09:47
1301lab4_conservation_energy_check_understanding.doc42.0 KiB2013/08/27 09:47
1301lab4_conservation_energy_intro.doc25.5 KiB2013/08/27 09:47
1301lab4_p1_conservation_energy_ke_work.doc31.0 KiB2013/08/27 09:47
1301lab4_p2_conservation_energy_ke_work2.doc33.0 KiB2013/08/27 09:47
1301lab4_p3_conservation_energy_collisions_objects_stick.doc51.5 KiB2013/08/27 09:47
1301lab4_p4_conservation_energy_collisions_objects_bounce.doc50.0 KiB2013/08/27 09:47
1301lab4_p5_conservation_energy_friction.doc48.5 KiB2013/08/27 09:47
1301lab5_conservation_momentum_check_understanding.doc35.0 KiB2013/08/27 09:47
1301lab5_conservation_momentum_intro.doc24.0 KiB2013/08/27 09:47
1301lab5_p1_conservation_momentum_inelastic.doc50.5 KiB2013/08/27 09:47
1301lab5_p2_conservation_momentum_elastic.doc51.5 KiB2013/08/27 09:47
1301lab6_p1_rotational_kinematics_angular_linear_speed.doc37.5 KiB2013/08/27 09:47
1301lab6_p2_rotational_kinematics_rotation_linear_constant_speed.doc46.5 KiB2013/08/27 09:47
1301lab6_p3_rotational_kinematics_angular_linear_acceleration.doc89.0 KiB2013/08/27 09:47
1301lab6_rotational_kinematics_check_understanding.doc50.5 KiB2013/08/27 09:47
1301lab6_rotational_kinematics_intro.doc25.5 KiB2013/08/27 09:47
1301lab7_p1_rotational_dynamics_moment_inertia_complex.doc40.0 KiB2013/08/27 09:47
1301lab7_p2_rotational_dynamics_moment_inertia_axis.doc431.0 KiB2013/08/27 09:47
1301lab7_p3_rotational_dynamics_moment_inertia_off-axis.doc40.5 KiB2013/08/27 09:47
1301lab7_p4_rotational_dynamics_forces_torques_energy.doc39.5 KiB2013/08/27 09:47
1301lab7_p5_rotational_dynamics_conservation_angular_momentum.doc37.0 KiB2013/08/27 09:47
1301lab7_p6_rotational_dynamics_mobile.doc36.0 KiB2013/08/27 09:47
1301lab7_p7_rotational_dynamics_crane_equilibrium.doc37.5 KiB2013/08/27 09:47
1301lab7_rotational_dynamics_check_understanding.doc35.5 KiB2013/08/27 09:47
1301lab7_rotational_dynamics_intro.doc26.5 KiB2013/08/27 09:47
1301lab8_mech_oscillations_check_understanding.doc60.0 KiB2013/08/27 09:47
1301lab8_mech_oscillations_intro.doc25.0 KiB2013/08/27 09:47
1301lab8_p1_mech_oscillations_measuring_spring_constant.doc38.0 KiB2013/08/27 09:47
1301lab8_p2_mech_oscillations_effective_spring_constant.doc37.5 KiB2013/08/27 09:47
1301lab8_p3_mech_oscillations_frequency_two_springs.doc74.5 KiB2013/08/27 09:47
1301lab8_p4_mech_oscillations_frequency_extended_system.doc64.5 KiB2013/08/27 09:47
1301lab8_p5_mech_oscillations_driven.doc294.5 KiB2013/08/27 09:47
1301labintro.doc48.5 KiB2013/08/27 09:47
1301toc.doc39.5 KiB2013/08/27 09:47
physlab/labdoc1301/home.txt · Last modified: 2013/08/27 12:04 by allan